"Pseudo-MPEC" for SO0005d

Created 2026 May 17 2:35:07 UT using Find_Orb

Click here for an explanation of pseudo-MPECs

 
 Astrometry: 
     SO0005d*0B2026 05 11.70461414 46 01.711-32 34 58.51   ~5C2Z 15.64VVNEOCPE54
     SO0005d 0B2026 05 11.70604114 46 36.252-32 36 10.01   ~5C2Z 17.74VVNEOCPE54
     SO0005d 0B2026 05 11.70758714 47 13.558-32 37 25.86   ~5C2Z 16.0 VVNEOCPE54
     SO0005d 0B2026 05 11.70902014 47 48.132-32 38 34.51   ~5C2Z 17.87VVNEOCPE54

Station data:
(E54) TransAstra at Springbrook  (S31.281736 E149.081470)  Australia/NSW.

Orbital elements:  SO0005d
   Perigee 2026 May 11.435974 +/- 37.2 TT = 10:27:48.1 (JD 2461171.935974)
Epoch 2026 May 12.0 TT = JDT 2461172.5                           AutoNEOCP
q166665.5353 +/- 1.53e+7            (J2000 equator)
H   29.02 G 0.15                    Peri.  192.075864 +/- 60
                                    Node   330.144150 +/- 90
e  79.61943318 +/- 0.244            Incl.   34.022684 +/- 2.4
From 4 observations 2026 May 11 (6.3 min); mean residual 0".99
Residuals in arcseconds: 
260511 E54  1.3+  .11+    260511 E54  1.6-  .15-    
260511 E54  1.2-  .10-    260511 E54  1.4+  .14+    

Ephemerides (geocentric):
Date (UTC) HH   RA             Dec           delta  r     elong  mag " sig PA
---- --------  ------------   ------------  ------ ------ -----  --- --------
2026 05 17 03  16 54 33.636   -33 12 54.31  .04523 1.0531 157.3 23.5  53d 114
2026 05 17 04  16 54 36.204   -33 12 46.72  .04556 1.0534 157.3 23.5  53d 114
2026 05 17 05  16 54 38.729   -33 12 39.18  .04589 1.0537 157.3 23.5  53d 114
2026 05 17 06  16 54 41.210   -33 12 31.69  .04622 1.0541 157.3 23.5  53d 114
2026 05 17 07  16 54 43.648   -33 12 24.25  .04656 1.0544 157.4 23.5  53d 114
2026 05 17 08  16 54 46.045   -33 12 16.85  .04689 1.0547 157.4 23.5  53d 114
2026 05 17 09  16 54 48.401   -33 12 09.50  .04722 1.0550 157.4 23.6  53d 114
2026 05 17 10  16 54 50.717   -33 12 02.19  .04755 1.0554 157.5 23.6  53d 114
2026 05 17 11  16 54 52.994   -33 11 54.93  .04789 1.0557 157.5 23.6  53d 114
2026 05 17 12  16 54 55.233   -33 11 47.70  .04822 1.0560 157.5 23.6  53d 114
2026 05 17 13  16 54 57.433   -33 11 40.52  .04855 1.0563 157.6 23.6  53d 114
2026 05 17 14  16 54 59.598   -33 11 33.38  .04888 1.0567 157.6 23.6  53d 114
2026 05 17 15  16 55 01.726   -33 11 26.27  .04922 1.0570 157.6 23.6  53d 114
2026 05 17 16  16 55 03.818   -33 11 19.20  .04955 1.0573 157.6 23.7  53d 114
2026 05 17 17  16 55 05.876   -33 11 12.17  .04988 1.0577 157.7 23.7  53d 114
2026 05 17 18  16 55 07.900   -33 11 05.18  .05022 1.0580 157.7 23.7  53d 114
2026 05 17 19  16 55 09.890   -33 10 58.22  .05055 1.0583 157.7 23.7  53d 114
2026 05 17 20  16 55 11.848   -33 10 51.29  .05088 1.0586 157.8 23.7  53d 114
2026 05 17 21  16 55 13.773   -33 10 44.39  .05122 1.0590 157.8 23.7  53d 114
2026 05 17 22  16 55 15.667   -33 10 37.53  .05155 1.0593 157.8 23.7  53d 114
2026 05 17 23  16 55 17.530   -33 10 30.70  .05188 1.0596 157.9 23.8  53d 114
2026 05 18 00  16 55 19.363   -33 10 23.89  .05221 1.0600 157.9 23.8  53d 114
2026 05 18 01  16 55 21.165   -33 10 17.12  .05255 1.0603 157.9 23.8  53d 114
2026 05 18 02  16 55 22.939   -33 10 10.38  .05288 1.0606 158.0 23.8  53d 114
2026 05 18 03  16 55 24.683   -33 10 03.66  .05321 1.0609 158.0 23.8  53d 114
2026 05 18 04  16 55 26.400   -33 09 56.97  .05355 1.0613 158.0 23.8  53d 114
2026 05 18 05  16 55 28.089   -33 09 50.31  .05388 1.0616 158.0 23.8  53d 114
2026 05 18 06  16 55 29.750   -33 09 43.67  .05421 1.0619 158.1 23.9  53d 114
2026 05 18 07  16 55 31.385   -33 09 37.06  .05455 1.0623 158.1 23.9  53d 114
2026 05 18 08  16 55 32.994   -33 09 30.47  .05488 1.0626 158.1 23.9  53d 115
2026 05 18 09  16 55 34.576   -33 09 23.91  .05522 1.0629 158.2 23.9  53d 115
2026 05 18 10  16 55 36.134   -33 09 17.36  .05555 1.0633 158.2 23.9  53d 115
2026 05 18 11  16 55 37.666   -33 09 10.84  .05588 1.0636 158.2 23.9  52d 115
2026 05 18 12  16 55 39.174   -33 09 04.35  .05622 1.0639 158.3 23.9  52d 115
2026 05 18 13  16 55 40.658   -33 08 57.87  .05655 1.0643 158.3 23.9  52d 115
2026 05 18 14  16 55 42.118   -33 08 51.41  .05688 1.0646 158.3 24.0  53d 115
2026 05 18 15  16 55 43.555   -33 08 44.98  .05722 1.0649 158.4 24.0  54d 112
2026 05 18 16  16 55 44.969   -33 08 38.56  .05755 1.0653 158.4 24.0  54d 112
2026 05 18 17  16 55 46.361   -33 08 32.16  .05789 1.0656 158.4 24.0  54d 113
2026 05 18 18  16 55 47.731   -33 08 25.78  .05822 1.0659 158.5 24.0  54d 113
2026 05 18 19  16 55 49.078   -33 08 19.42  .05855 1.0662 158.5 24.0  53d 113
2026 05 18 20  16 55 50.405   -33 08 13.07  .05889 1.0666 158.5 24.0  53d 113
2026 05 18 21  16 55 51.710   -33 08 06.74  .05922 1.0669 158.6 24.0  53d 113
2026 05 18 22  16 55 52.995   -33 08 00.43  .05956 1.0672 158.6 24.0  53d 113
2026 05 18 23  16 55 54.259   -33 07 54.13  .05989 1.0676 158.6 24.1  53d 113
2026 05 19 00  16 55 55.503   -33 07 47.85  .06022 1.0679 158.7 24.1  53d 113
2026 05 19 01  16 55 56.728   -33 07 41.58  .06056 1.0682 158.7 24.1  53d 113
2026 05 19 02  16 55 57.933   -33 07 35.33  .06089 1.0686 158.7 24.1  53d 113